Location: Apeadero de Los Molinos-Guadarrama
(40.7091°N, 4.0689°W)
Time: 11:37:42
(UTC+00:00)

Resurs 1-3 - Pass Details

Date: 14 May 2021
Orbit: 630 x 631 km, 97.9° (Epoch: 18 June)

Event Time Altitude Azimuth Distance (km) Brightness Sun altitude
Exits shadow 20:18:35 - 157° (SSE) 2,174 5.8 -9.4°
Reaches altitude 10° 20:19:00 10° 156° (SSE) 2,006 5.7 -9.5°
Maximum altitude 20:23:20 67° 75° (ENE) 689 3.6 -10.2°
Drops below altitude 10° 20:27:42 10° 353° (N) 2,021 6.9 -10.8°
Sets 20:29:55 0° 351° (N) 2,933 7.8 -11.2°
